Weather History for Somerville, NJ

Change the Weather History Date:

Wednesday, August 14, 2013

  Actual Average Record
Temperature  
Mean Temperature 64 °F -  
Max Temperature 75 °F 82 °F 98 °F (1944)
Min Temperature 55 °F 60 °F 46 °F (1941)
Degree Days  
Heating Degree Days 1    
Growing Degree Days 14 (Base 50)    
Moisture  
Dew Point 52 °F    
Average Humidity 65    
Maximum Humidity 96    
Minimum Humidity 41    
Precipitation  
Precipitation 0.01 in - - ()
Sea Level Pressure  
Sea Level Pressure 29.89 in    
Wind  
Wind Speed 6 mph (NW)    
Max Wind Speed 16 mph    
Max Gust Speed 28 mph    
Visibility 10 miles    
Events      
Averages and records for this station are not official NWS values.
T = Trace of Precipitation, MM = Missing Value Source: NWS Daily Summary

Daily Weather History Graph

Daily Weather History Graph

Search for Another Location

Airport:

Trip Planner

Search our weather history database for the weather conditions in past years. The results will help you decide how hot, cold, wet, or windy it might be!

Date:

Astronomy

Aug. 14, 2013 Rise Set
Actual Time 6:08 AM EDT 7:57 PM EDT
Civil Twilight 5:38 AM EDT 8:26 PM EDT
Nautical Twilight 5:03 AM EDT 9:02 PM EDT
Astronomical Twilight 4:24 AM EDT 9:40 PM EDT
Moon 2:07 PM EDT (8/14) No Moon Set
Length of Visible Light 14h 47m
Length of Day
13h 49m
First Quarter, 52% of the Moon is Illuminated
Aug 14
First Quarter
Aug 20
Full
Aug 28
Last Quarter
Sep 5
New
Sep 12
First Quarter

Hourly Weather History & Observations

Time (EDT) Temp. Dew Point Humidity Pressure Visibility Wind Dir Wind Speed Gust Speed Precip Events Conditions
12:53 AM 66.0 °F 64.9 °F 96% 29.78 in 5.0 mi NNW 3.5 mph - N/A   Clear
1:53 AM 64.0 °F 59.0 °F 84% 29.78 in 10.0 mi NNW 4.6 mph - N/A   Clear
2:53 AM 64.0 °F 53.1 °F 67% 29.78 in 10.0 mi Variable 4.6 mph - N/A   Clear
3:53 AM 62.1 °F 52.0 °F 70% 29.79 in 10.0 mi Variable 4.6 mph - N/A   Clear
4:53 AM 57.0 °F 54.0 °F 89% 29.81 in 10.0 mi Calm Calm - N/A   Clear
5:53 AM 55.0 °F 53.1 °F 93% 29.82 in 10.0 mi Calm Calm - N/A   Clear
6:53 AM 55.9 °F 53.1 °F 90% 29.85 in 10.0 mi Calm Calm - N/A   Clear
7:53 AM 61.0 °F 51.1 °F 70% 29.86 in 10.0 mi Calm Calm - N/A   Clear
8:53 AM 63.0 °F 46.9 °F 56% 29.87 in 10.0 mi NW 9.2 mph - 0.01 in   Clear
9:53 AM 64.9 °F 46.9 °F 52% 29.88 in 10.0 mi NW 12.7 mph 23.0 mph N/A   Clear
10:53 AM 66.9 °F 48.9 °F 52% 29.88 in 10.0 mi NW 10.4 mph 18.4 mph N/A   Clear
11:53 AM 70.0 °F 48.9 °F 47% 29.88 in 10.0 mi NNW 12.7 mph 19.6 mph N/A   Clear
12:53 PM 72.0 °F 48.9 °F 44% 29.89 in 10.0 mi NNW 15.0 mph 24.2 mph N/A   Clear
1:54 PM 72.0 °F 48.9 °F 44% 29.90 in 10.0 mi NNW 9.2 mph 25.3 mph N/A   Mostly Cloudy
2:53 PM 73.0 °F 48.0 °F 41% 29.90 in 10.0 mi NNW 10.4 mph 27.6 mph N/A   Mostly Cloudy
3:53 PM 73.9 °F 50.0 °F 43% 29.90 in 10.0 mi NW 10.4 mph 19.6 mph N/A   Partly Cloudy
4:53 PM 73.9 °F 50.0 °F 43% 29.91 in 10.0 mi NW 11.5 mph 21.9 mph N/A   Clear
5:53 PM 73.9 °F 50.0 °F 43% 29.91 in 10.0 mi NW 16.1 mph 24.2 mph N/A   Mostly Cloudy
6:53 PM 72.0 °F 50.0 °F 46% 29.94 in 10.0 mi NW 11.5 mph - N/A   Partly Cloudy
7:53 PM 69.1 °F 50.0 °F 51% 29.96 in 10.0 mi NNW 5.8 mph - N/A   Clear
8:53 PM 60.1 °F 54.0 °F 80% 29.99 in 10.0 mi Calm Calm - N/A   Clear
9:53 PM 57.9 °F 54.0 °F 87% 30.02 in 10.0 mi Calm Calm - N/A   Clear
10:53 PM 57.0 °F 53.1 °F 87% 30.04 in 10.0 mi Calm Calm - N/A   Clear
11:53 PM 55.0 °F 53.1 °F 93% 30.06 in 10.0 mi NW 3.5 mph - N/A   Clear